Regional Weather Roundup
Issued by NWS

Home | Current Version | Previous Version | Graphics & Text | Print | Product List | Glossary Off
Versions: 1 2 3 4 5 6 7 8 9 10 11 12 13 14 15 16 17 18 19 20 21 22 23 24 25 26 27 28 29 30 31 32 33 34 35 36 37 38 39 40 41 42 43 44 45 46 47 48 49 50

000
ASUS43 KLSX 250307
RWRMO

WEATHER SUMMARY FOR MISSOURI
NATIONAL WEATHER SERVICE SPRINGFIELD MO
1000 PM CDT FRI MAR 24 2017

NOTE: "FAIR" INDICATES FEW OR NO CLOUDS BELOW 12,000 FEET WITH NO
       SIGNIFICANT WEATHER AND/OR OBSTRUCTIONS TO VISIBILITY.
       CURRENT SKY AND/OR WEATHER CONDITIONS ARE NOT AVAILABLE FOR
       CHILLICOTHE AND FARMINGTON.

MOZ001>031-035>038-043-044-053-054-250400-
...NORTHERN AND WESTERN MISSOURI...

CITY           SKY/WX    TMP DP  RH WIND       PRES   REMARKS
KANSAS CTY INT CLOUDY    59  57  93 SE7       29.82F
KANSAS C DTWN  LGT RAIN  60  57  89 E6        29.82F
LEE`S SUMMIT   MOCLDY    58  56  93 E6        29.82F
ST JOSEPH      LGT RAIN  58  58 100 NW9       29.85R FOG
CHILLICOTHE      N/A     58  57  97 S3        29.88R
KIRKSVILLE     CLOUDY    56  56 100 E6        29.90F

$$
MOZ066>068-077>081-088>096-101>105-250400-
...SOUTHWEST MISSOURI...

CITY           SKY/WX    TMP DP  RH WIND       PRES   REMARKS
SPRINGFIELD    LGT RAIN  54  52  93 E18       29.85F
JOPLIN         MOCLDY    58  54  86 SE7       29.82R

$$
MOZ032>034-039>042-045>050-055>058-069>072-250400-
...CENTRAL MISSOURI...

CITY           SKY/WX    TMP DP  RH WIND       PRES   REMARKS
COLUMBIA       RAIN      58  58 100 S6        29.94R FOG
JEFFERSON CITY RAIN      61  57  87 N5        29.93F FOG
ROLLA          TSTM      58  57  97 NW13      29.90F FOG
SEDALIA        CLOUDY    61  57  87 SE21G31   29.82F
WHITEMAN AFB   MOCLDY    57  57 100 S12       29.81F
WARRENSBURG    MOCLDY    59  54  82 SE7       29.82F
OSAGE BEACH    HVY RAIN N/A N/A N/A W16G26    29.93R

$$
MOZ051-052-059>065-250400-
...EAST CENTRAL MISSOURI...

CITY           SKY/WX    TMP DP  RH WIND       PRES   REMARKS
ST LOUIS INTL  LGT RAIN  69  58  67 SE14      29.96S
SPIRIT OF STL  CLOUDY    70  57  63 SE8       29.92F
ST CHARLES     CLOUDY    68  56  65 SE14      29.94S

$$
MOZ072>076-082>087-097>100-106>115-250400-
...SOUTH CENTRAL AND SOUTHEAST MISSOURI...

CITY           SKY/WX    TMP DP  RH WIND       PRES   REMARKS
CAPE GIRARDEAU CLOUDY    66  55  67 SE12      29.99F
FARMINGTON     CLOUDY    65  59  81 SE12      29.96F
POPLAR BLUFF   MOCLDY    68  59  73 SE13      29.95F
WEST PLAINS    LGT RAIN  63  59  87 SW9G23    29.94R

$$



USA.gov is the U.S. government's official web portal to all federal, state and local government web resources and services.